Station: Coonawarra  

  Atmospheric Gas Attenuation - ITU Rec 676-11   ----------------- dB/100km -----------------
Date Time Temp RH % AH g/m3 Dew Point Wind Direction Speed kph Gust kph Barometer mB Rainfall Since 9am 24GHz 47GHz 76GHz 122GHz 134GHz 241GHz
06/05 06:00 12 96 10.23 11.4 15 22 1020.6 0 23.2 29.5 48.0 126.2 124.2 428.3
06/05 05:50 12 96 10.23 11.4 15 19 1020.6 0 23.2 29.5 48.0 126.2 124.2 428.3
06/05 05:40 11.8 96 10.11 11.2 17 20 1020.6 0 22.9 29.4 47.6 125.1 122.8 423.4
06/05 05:30 11.9 96 10.17 11.3 17 24 1020.7 0 23.0 29.4 47.8 125.7 123.5 425.9
06/05 05:20 12 95 10.13 11.2 17 20 1020.8 0 23.0 29.3 47.6 125.1 122.8 423.4
06/05 05:10 12.1 95 10.19 11.3 19 20 1020.8 0 23.1 29.4 47.8 125.6 123.5 425.8
06/05 05:00 12.2 95 10.25 11.4 15 20 1020.8 0 23.2 29.5 48.0 126.1 124.2 428.3
06/05 04:50 12.2 95 10.25 11.4 13 15 1020.8 0 23.2 29.5 48.0 126.1 124.2 428.3
06/05 04:40 12.2 94 10.14 11.3 13 15 1020.8 0 23.0 29.3 47.5 124.9 122.6 422.8
06/05 04:30 12.2 94 10.14 11.3 15 20 1020.8 0 23.0 29.3 47.5 124.9 122.6 422.8
06/05 04:20 12.1 93 9.97 11 17 22 1020.9 0 22.6 29.0 46.8 123.1 120.3 414.8
06/05 04:10 12.1 93 9.97 11 15 17 1021 0 22.6 29.0 46.8 123.1 120.3 414.9
06/05 04:00 12 93 9.91 10.9 15 20 1020.9 0 22.5 29.0 46.6 122.5 119.6 412.4
06/05 03:50 12 92 9.81 10.7 13 17 1020.9 0 22.3 28.8 46.2 121.4 118.2 407.4
06/05 03:40 12 91 9.7 10.6 15 17 1021 0 22.0 28.6 45.7 120.1 116.6 402.0
06/05 03:30 12 91 9.7 10.6 13 19 1021 0 22.0 28.6 45.7 120.1 116.6 402.0
06/05 03:20 12.1 90 9.65 10.5 15 17 1021.1 0 21.9 28.5 45.4 119.4 115.8 399.0
06/05 03:10 12 90 9.59 10.4 11 13 1021.1 0 21.8 28.4 45.2 118.9 115.1 396.6
06/05 03:00 12 90 9.59 10.4 11 17 1021.2 0 21.8 28.4 45.3 118.9 115.1 396.6
06/05 02:50 12.1 89 9.55 10.3 13 13 1021.2 0 21.7 28.3 45.0 118.3 114.4 394.1
06/05 02:40 12.2 89 9.61 10.4 13 15 1021.4 0 21.8 28.4 45.2 118.8 115.1 396.6
06/05 02:30 12.1 90 9.65 10.5 13 17 1021.5 0 21.9 28.5 45.5 119.4 115.8 399.1
06/05 02:20 12 91 9.7 10.6 13 15 1021.6 0 22.0 28.6 45.7 120.2 116.7 402.2
06/05 02:10 12 91 9.7 10.6 11 13 1021.7 0 22.0 28.6 45.7 120.2 116.7 402.2
06/05 02:00 11.8 92 9.68 10.5 9 13 1021.8 0 22.0 28.7 45.8 120.3 116.7 402.3
06/05 01:50 11.9 92 9.74 10.6 11 11 1022 0 22.1 28.7 46.0 120.8 117.5 404.8
06/05 01:40 12.1 91 9.76 10.7 11 13 1022 0 22.2 28.7 46.0 120.8 117.4 404.7
06/05 01:30 12.2 92 9.93 10.9 9 13 1022.1 0 22.5 29.0 46.6 122.6 119.7 412.7
06/05 01:20 12.3 92 9.99 11 9 11 1022.1 0 22.6 29.0 46.8 123.1 120.4 415.2
06/05 01:10 12.3 92 9.99 11 11 13 1022.2 0 22.6 29.0 46.8 123.1 120.4 415.2
06/05 01:00 12.2 92 9.93 10.9 9 13 1022.3 0 22.5 29.0 46.7 122.6 119.7 412.8
06/05 00:50 12.2 92 9.93 10.9 11 13 1022.4 0 22.5 29.0 46.7 122.6 119.7 412.8
06/05 00:40 12.3 91 9.88 10.9 11 13 1022.4 0 22.4 28.9 46.4 121.9 118.9 409.8
06/05 00:30 12.4 91 9.94 11 11 15 1022.5 0 22.5 28.9 46.6 122.4 119.6 412.3
06/05 00:20 12.6 90 9.96 11 11 13 1022.6 0 22.6 28.9 46.6 122.3 119.6 412.2
06/05 00:10 12.6 90 9.96 11 13 15 1022.6 0 22.6 28.9 46.6 122.3 119.6 412.2
06/05 00:00 12.5 90 9.9 10.9 13 15 1022.6 0 22.4 28.8 46.4 121.8 118.9 409.8
05/05 23:50 12.5 91 10.01 11.1 13 15 1022.6 0 22.7 29.0 46.8 123.1 120.4 415.2
05/05 23:40 12.5 90 9.9 10.9 11 13 1022.7 0 22.4 28.8 46.4 121.8 118.9 409.8
05/05 23:30 12.5 90 9.9 10.9 11 13 1022.7 0 22.4 28.8 46.4 121.8 118.9 409.8
05/05 23:20 12.6 90 9.96 11 11 15 1022.8 0 22.6 28.9 46.6 122.4 119.6 412.3
05/05 23:10 12.6 90 9.96 11 13 15 1022.8 0 22.6 28.9 46.6 122.4 119.6 412.3
05/05 23:00 12.5 91 10.01 11.1 11 15 1022.9 0 22.7 29.0 46.9 123.1 120.5 415.3
05/05 22:50 12.4 91 9.94 11 11 15 1023 0 22.5 29.0 46.6 122.5 119.6 412.4
05/05 22:40 12.4 93 10.16 11.3 9 13 1023.2 0 23.0 29.3 47.6 125.0 122.8 423.5
05/05 22:30 12.1 94 10.08 11.2 9 11 1023.3 0 22.8 29.3 47.4 124.6 122.1 421.1
05/05 22:20 11.9 94 9.96 11 7 9 1023.3 0 22.6 29.2 47.0 123.5 120.7 416.2
05/05 22:10 11.7 94 9.83 10.8 7 9 1023.4 0 22.3 29.0 46.6 122.4 119.2 410.8
05/05 22:00 11.7 94 9.83 10.8 9 11 1023.4 0 22.3 29.0 46.6 122.4 119.2 410.8
05/05 21:50 11.3 93 9.49 10.2 7 9 1023.4 0 21.6 28.6 45.3 119.0 114.9 395.9
05/05 21:40 11.4 92 9.44 10.1 7 9 1023.5 0 21.5 28.4 45.1 118.3 114.1 393.0
05/05 21:30 11.8 92 9.68 10.5 9 9 1023.4 0 22.0 28.7 45.9 120.5 116.9 402.8
05/05 21:20 12.1 92 9.87 10.8 9 9 1023.4 0 22.4 28.9 46.5 122.2 119.1 410.7
05/05 21:10 12.3 91 9.88 10.9 7 9 1023.3 0 22.4 28.9 46.4 122.0 119.0 410.1
05/05 21:00 12.8 90 10.08 11.2 7 9 1023.3 0 22.8 29.1 47.0 123.5 121.0 417.3
05/05 20:50 13.2 89 10.22 11.4 6 7 1023.3 0 23.1 29.2 47.4 124.5 122.4 422.1
05/05 20:40 13.2 89 10.22 11.4 9 9 1023.3 0 23.1 29.2 47.4 124.5 122.4 422.1
05/05 20:30 13.3 89 10.28 11.5 9 13 1023.3 0 23.2 29.3 47.6 125.0 123.1 424.5
05/05 20:20 13.4 88 10.23 11.5 11 13 1023.4 0 23.1 29.1 47.3 124.3 122.2 421.5
05/05 20:10 13.3 88 10.17 11.4 13 15 1023.4 0 23.0 29.1 47.1 123.7 121.5 419.1
05/05 20:00 13.2 90 10.33 11.6 9 13 1023.4 0 23.3 29.4 47.8 125.7 123.9 427.6
05/05 19:50 13.2 90 10.33 11.6 7 9 1023.4 0 23.3 29.4 47.8 125.7 123.9 427.6
05/05 19:40 13.2 90 10.33 11.6 7 9 1023.4 0 23.3 29.4 47.8 125.7 123.9 427.6
05/05 19:30 13.4 89 10.35 11.6 7 9 1023.4 0 23.3 29.4 47.8 125.7 123.9 427.5
05/05 19:20 13.4 89 10.35 11.6 7 7 1023.4 0 23.3 29.4 47.8 125.7 123.9 427.5
05/05 19:10 13.5 88 10.29 11.6 7 7 1023.3 0 23.2 29.2 47.5 124.8 122.9 423.9
05/05 19:00 13.6 87 10.24 11.5 7 11 1023.3 0 23.1 29.1 47.2 124.1 122.0 420.9
05/05 18:50 13.6 87 10.24 11.5 7 9 1023.3 0 23.1 29.1 47.2 124.1 122.0 420.9
05/05 18:40 13.7 87 10.3 11.6 7 9 1023.2 0 23.2 29.2 47.4 124.6 122.7 423.3
05/05 18:30 13.6 88 10.36 11.7 7 11 1023.1 0 23.4 29.3 47.7 125.4 123.7 426.8
05/05 18:20 13.7 88 10.42 11.7 7 7 1023.1 0 23.5 29.4 47.9 125.9 124.4 429.2
05/05 18:10 13.7 88 10.42 11.7 6 7 1023 0 23.5 29.4 47.9 125.9 124.4 429.2
05/05 18:00 13.8 87 10.37 11.7 7 9 1022.9 0 23.4 29.2 47.6 125.2 123.5 426.1
05/05 17:50 13.7 87 10.3 11.6 7 9 1022.9 0 23.2 29.1 47.4 124.5 122.7 423.2
05/05 17:40 13.8 87 10.37 11.7 7 9 1022.8 0 23.4 29.2 47.6 125.2 123.5 426.1
05/05 17:30 14 86 10.37 11.7 13 19 1022.7 0 23.4 29.2 47.5 124.8 123.1 424.9
05/05 17:20 14.5 81 10.07 11.3 19 20 1022.6 0 22.7 28.5 45.9 120.6 118.1 407.6
05/05 17:10 14.7 81 10.2 11.5 7 9 1022.5 0 22.9 28.6 46.3 121.8 119.6 412.8
05/05 17:00 14.8 79 10.01 11.2 9 11 1022.4 0 22.5 28.3 45.5 119.5 116.8 403.0
05/05 16:50 14.9 79 10.07 11.3 11 11 1022.3 0 22.7 28.3 45.7 120.0 117.5 405.4
05/05 16:40 15.1 78 10.06 11.3 9 11 1022.3 0 22.6 28.3 45.5 119.6 117.1 403.9
05/05 16:30 15.2 77 9.99 11.2 11 13 1022.3 0 22.5 28.1 45.2 118.6 116.0 400.0
05/05 16:20 15.2 76 9.86 11 13 17 1022.3 0 22.2 27.9 44.6 117.2 114.2 393.8
05/05 16:10 15.3 73 9.53 10.5 11 13 1022.3 0 21.5 27.3 43.2 113.4 109.6 377.6
05/05 16:00 15.4 73 9.59 10.6 11 15 1022.2 0 21.6 27.4 43.4 113.9 110.2 380.0
05/05 15:50 15.5 71 9.38 10.3 13 15 1022.2 0 21.2 27.0 42.5 111.5 107.3 369.6
05/05 15:40 15.6 74 9.84 11 9 9 1022.2 0 22.1 27.7 44.3 116.4 113.3 390.8
05/05 15:30 15.5 73 9.65 10.7 15 22 1022.1 0 21.7 27.4 43.6 114.4 110.9 382.3
05/05 15:20 15.5 72 9.52 10.5 20 24 1022.1 0 21.5 27.2 43.0 113.0 109.1 376.2
05/05 15:10 15.7 73 9.77 10.9 13 17 1022 0 22.0 27.6 43.9 115.4 112.2 386.9
05/05 15:00 15.6 73 9.71 10.8 13 17 1021.9 0 21.9 27.5 43.7 114.9 111.5 384.5
05/05 14:50 15.5 72 9.52 10.5 13 15 1021.8 0 21.5 27.2 43.0 113.0 109.1 376.1
05/05 14:40 15.7 73 9.77 10.9 7 9 1021.8 0 22.0 27.6 43.9 115.4 112.2 386.9
05/05 14:30 15.6 74 9.84 11 13 19 1021.7 0 22.1 27.7 44.3 116.3 113.3 390.6
05/05 14:20 15.4 75 9.85 11 9 11 1021.6 0 22.2 27.8 44.4 116.7 113.7 392.1
05/05 14:10 15.3 75 9.79 10.9 13 15 1021.6 0 22.0 27.7 44.2 116.2 113.0 389.7
05/05 14:00 15.4 76 9.99 11.2 9 15 1021.6 0 22.5 28.0 45.0 118.2 115.6 398.7
05/05 13:50 15.4 75 9.85 11 15 17 1021.6 0 22.2 27.8 44.4 116.7 113.7 392.1
05/05 13:40 15.3 75 9.79 10.9 15 17 1021.5 0 22.0 27.7 44.2 116.2 113.0 389.7
05/05 13:30 15.2 73 9.48 10.4 9 13 1021.5 0 21.4 27.2 43.0 112.9 109.0 375.5

Last Refresh: 06-May-2026 06:02:49

Bureau of Meteorology